[[{"header":{"parameterUnit":"m.s-1","parameterCategory":1,"la1":30.2991,"la2":30.254,"lo1":-89.0895,"lo2":-89.0444,"dy":0.0017,"dx":0.0017,"nx":28,"ny":28,"refTime":"2025-08-22T21:00:00:Z","depth":0,"parameterNumber":2,"parameterNumberName":"U-component_of_WINDS"},"data":[0,0,0,0,0,0,0,0,0,0,0,0,0,0,0,0,0,0,0,0,0,0,0,0,0,0,0,0,0,0,0,0,0,0,0,0,0,0,0,0,0,0,0,0,0,0,0,0,0,0,0,0,0,0,0,0,0,0,2.5803,2.5804,0,2.5868,2.5869,2.587,2.5848,2.5847,2.5845,2.5844,2.5911,2.5914,2.5917,0,0,0,0,0,0,0,0,0,0,0,0,0,2.566,2.5662,2.5803,2.5804,2.5805,2.5868,2.5869,2.587,2.5848,2.5847,2.5845,2.5843,2.591,2.5913,2.5917,0,0,0,0,0,0,0,0,0,0,0,0,0,2.5723,2.5663,2.5803,2.5802,2.5802,2.5868,2.5869,2.587,2.5849,2.5847,2.5845,2.5843,2.5908,2.5913,2.5918,2.5989,0,0,2.5932,2.5934,0,0,0,0,0,0,0,0,2.5719,2.5728,2.5801,2.5802,2.5803,2.5848,2.5843,2.591,2.5849,2.5831,2.5844,2.5842,2.5892,2.5897,2.5914,2.5992,2.5994,2.5932,2.5935,2.5937,2.5938,0,0,0,0,0,0,0,2.5715,2.5725,2.5829,2.5802,2.5803,2.5798,2.5804,2.5855,2.5872,2.5833,2.5831,2.5839,2.5892,2.591,2.5916,2.5995,2.5932,2.5936,2.5939,2.5941,2.6132,2.6134,0,0,0,0,0,0,2.571,2.5722,2.5827,2.5831,2.5755,2.5802,2.5809,2.5836,2.5872,2.5875,2.5841,2.5838,2.5903,2.591,2.5918,2.6001,2.5937,2.5941,2.5944,2.613,2.6133,2.6135,0,0,0,0,0,0,2.5707,2.572,2.5824,2.5776,2.5789,2.5807,2.5836,2.5838,2.5856,2.5878,2.5881,2.5856,2.5902,2.5911,2.5971,2.6003,2.5943,2.5948,2.6127,2.6131,2.6134,2.617,0,0,0,0,0,0,2.5703,2.5719,2.5746,2.5777,2.5792,2.5876,2.5838,2.5841,2.5864,2.5861,2.5893,2.5897,2.5901,2.5964,2.5975,2.6009,2.5951,2.6124,2.6129,2.6133,2.6166,2.6174,2.6181,0,0,0,0,0,2.5698,2.5754,2.5748,2.576,2.5826,2.5878,2.5886,2.589,2.5867,2.5894,2.5908,2.5896,2.5999,2.597,2.5983,2.6018,2.6122,2.6127,2.6133,2.6162,2.6172,2.6181,0,0,0,0,0,0,2.5727,2.5758,2.5751,2.5819,2.5846,2.5874,2.5908,2.5901,2.5935,2.593,2.5933,2.5941,2.6001,2.6016,2.5984,2.6088,2.6057,2.6065,2.6075,2.6085,2.6093,2.6086,2.5955,0,0,0,0,0,2.5741,2.5781,2.5806,2.5863,2.5877,2.5891,2.5914,2.5914,2.5942,2.5953,2.5971,2.5999,2.6037,2.6063,2.6099,2.6169,2.6174,2.6199,2.6207,2.6213,2.6219,2.6255,2.6265,2.6152,2.6152,2.6152,0,0,2.5771,2.5793,2.5818,2.587,2.589,2.5931,2.59,2.5945,2.5974,2.596,2.6016,2.6031,2.6062,2.6126,2.6155,2.614,2.6252,2.622,2.6225,2.6227,2.6261,2.6272,2.6281,2.6156,2.6155,2.6155,0,0,2.5845,2.5867,2.5915,2.5937,2.5969,2.5977,2.5989,2.6019,2.6028,2.6085,2.6074,2.611,2.6176,2.6198,2.6218,2.63,2.6289,2.6312,2.6351,2.6386,2.6395,2.6403,2.6429,2.6439,2.6319,2.6319,2.6319,0,2.5877,2.5938,2.5941,2.5986,2.6008,2.5998,2.6046,2.6067,2.611,2.6125,2.6108,2.619,2.6211,2.6279,2.6298,2.6316,2.6328,2.6307,2.6393,2.6401,2.6409,2.6434,2.6444,2.6321,2.6321,2.632,2.632,0,2.5975,2.6017,2.6053,2.6093,2.612,2.6167,2.6177,2.6204,2.6202,2.6212,2.6269,2.6293,2.6334,2.6351,2.635,2.6418,2.6407,2.6392,2.6361,2.6422,2.6445,2.6456,2.6324,2.6323,2.6323,2.6322,0,0,2.6067,2.6109,2.6122,2.6139,2.6174,2.6206,2.6252,2.6292,2.6313,2.6344,2.6381,2.6437,2.6423,2.6446,2.6447,2.6478,2.6539,2.6459,2.646,2.647,2.6613,2.6622,2.6633,2.6533,2.6535,2.6536,2.6609,0,2.6141,2.6222,2.6226,2.6299,2.6336,2.6327,2.6367,2.6392,2.6403,2.6437,2.6449,2.6488,2.6468,2.6481,2.6511,2.6525,2.6567,2.652,2.6566,2.6567,2.6555,2.6646,2.6656,2.6723,2.6619,2.662,2.6622,0,2.6239,2.6271,2.6347,2.6375,2.6391,2.6426,2.6462,2.6495,2.6523,2.6529,2.6554,2.6551,2.6597,2.6567,2.663,2.6598,2.6617,2.6627,2.663,2.6632,2.6596,2.6648,2.6745,2.6754,2.6637,2.6636,2.6635,0,2.6294,2.6357,2.641,2.6426,2.6461,2.6485,2.6501,2.6527,2.655,2.6582,2.6596,2.6634,2.6653,2.6681,2.6688,2.6666,2.675,2.6721,2.6755,2.6755,2.6771,2.6769,2.687,2.6788,2.6788,2.6788,2.6788,0,2.6375,2.6422,2.6435,2.6468,2.6519,2.6524,2.6575,2.6589,2.6612,2.6646,2.6642,2.6674,2.6682,2.6716,2.6722,2.6772,2.6782,2.6787,2.6787,2.6785,2.6784,2.6796,2.679,2.6791,2.679,2.679,2.6789,0,2.6445,2.6457,2.6513,2.6542,2.655,2.6586,2.661,2.664,2.6651,2.6695,2.6705,2.6722,2.6761,2.6772,2.6819,2.6823,2.6881,2.6879,2.6871,2.687,2.6903,2.6898,2.7012,2.7026,2.6938,2.6939,2.694,0,2.6495,2.653,2.6562,2.6584,2.6601,2.6637,2.666,2.6667,2.6691,2.6726,2.6752,2.6791,2.6822,2.6886,2.6902,2.6938,2.6934,2.6972,2.6939,2.6936,2.6931,2.6928,2.693,2.6977,2.6978,2.6978,2.6979,0,2.658,2.6584,2.6617,2.6653,2.668,2.6709,2.6736,2.6755,2.6765,2.6793,2.6832,2.6857,2.6905,2.6943,2.6979,2.6995,2.6988,2.699,2.6999,2.6996,2.6989,2.699,2.6884,2.6986,2.6985,2.6985,2.6985,2.6984,2.6639,2.6669,2.6696,2.6733,2.6754,2.6779,2.6809,2.6823,2.6857,2.6896,2.6898,2.6941,2.6968,2.7016,2.7034,2.7067,2.7055,2.707,2.7073,2.7075,2.7077,2.6986,2.7074,2.7074,2.7074,2.7073,2.7073,0,2.6722,2.6739,2.6773,2.681,2.6839,2.6832,2.6861,2.6886,2.6923,2.6949,2.698,2.7025,2.7062,2.7081,2.7117,2.714,2.7138,2.7149,2.7146,2.7149,2.7086,2.7073,2.715,2.715,2.715,2.715,2.715,2.715,2.6768,2.6818,2.6825,2.6884,2.6901,2.6942,2.696,2.6982,2.7003,2.7053,2.7083,2.7096,2.7118,2.7156,2.7189,2.7194,2.7206,2.7219,2.7221,2.7162,2.7154,2.7146,2.7134,2.7222,2.7222,2.7281,2.7282,2.7282]},{"header":{"parameterUnit":"m.s-1","parameterCategory":1,"la1":30.2991,"la2":30.254,"lo1":-89.0895,"lo2":-89.0444,"dy":0.0017,"dx":0.0017,"nx":28,"ny":28,"refTime":"2025-08-22T21:00:00:Z","depth":0,"parameterNumber":3,"parameterNumberName":"V-component_of_WINDS"},"data":[0,0,0,0,0,0,0,0,0,0,0,0,0,0,0,0,0,0,0,0,0,0,0,0,0,0,0,0,0,0,0,0,0,0,0,0,0,0,0,0,0,0,0,0,0,0,0,0,0,0,0,0,0,0,0,0,0,0,0.521,0.5211,0,0.5343,0.5344,0.5346,0.541,0.541,0.541,0.541,0.5546,0.5549,0.5553,0,0,0,0,0,0,0,0,0,0,0,0,0,0.5009,0.5012,0.5209,0.5211,0.5213,0.5343,0.5345,0.5346,0.541,0.541,0.541,0.541,0.5545,0.5549,0.5553,0,0,0,0,0,0,0,0,0,0,0,0,0,0.5115,0.5014,0.5209,0.526,0.5266,0.5342,0.5345,0.5347,0.541,0.541,0.541,0.541,0.5543,0.5549,0.5554,0.559,0,0,0.5571,0.5573,0,0,0,0,0,0,0,0,0.5109,0.5122,0.5251,0.5257,0.5263,0.536,0.5324,0.5428,0.541,0.5355,0.541,0.541,0.5484,0.5494,0.552,0.5596,0.5602,0.5571,0.5575,0.5577,0.5579,0,0,0,0,0,0,0,0.5101,0.5116,0.5262,0.5253,0.526,0.5276,0.5291,0.5344,0.5418,0.536,0.5365,0.538,0.5487,0.5514,0.5523,0.5604,0.5571,0.5576,0.558,0.5582,0.5716,0.5716,0,0,0,0,0,0,0.5086,0.511,0.5258,0.5266,0.5184,0.528,0.5296,0.5329,0.5418,0.5432,0.538,0.5382,0.5505,0.5517,0.5528,0.5576,0.5577,0.5582,0.5585,0.5716,0.5716,0.5716,0,0,0,0,0,0,0.5081,0.5098,0.5253,0.519,0.521,0.5283,0.5319,0.5332,0.5358,0.5433,0.5447,0.5393,0.5505,0.552,0.5574,0.5582,0.5585,0.559,0.5716,0.5716,0.5716,0.5672,0,0,0,0,0,0,0.5075,0.5096,0.5111,0.5189,0.5214,0.5296,0.532,0.5334,0.5368,0.5372,0.5449,0.5462,0.5506,0.5565,0.5579,0.5589,0.5594,0.5715,0.5716,0.5716,0.5673,0.567,0.5668,0,0,0,0,0,0.5068,0.5093,0.5111,0.5129,0.5233,0.5297,0.531,0.5361,0.5368,0.5383,0.5431,0.546,0.5578,0.557,0.5587,0.5598,0.5715,0.5716,0.5716,0.5674,0.5671,0.5668,0,0,0,0,0,0,0.5013,0.5104,0.5125,0.5177,0.5228,0.5307,0.5328,0.5356,0.5407,0.5409,0.5469,0.5486,0.5534,0.5572,0.5561,0.5637,0.5649,0.5653,0.5611,0.5609,0.5607,0.5598,0.5599,0,0,0,0,0,0.5007,0.5051,0.5128,0.5166,0.5191,0.5254,0.5284,0.5318,0.5374,0.5396,0.5448,0.5501,0.5551,0.5582,0.5631,0.5678,0.5696,0.5694,0.5692,0.569,0.5693,0.572,0.572,0.5718,0.5718,0.5718,0,0,0.4995,0.505,0.5074,0.5156,0.52,0.5244,0.5273,0.5318,0.5351,0.5403,0.5457,0.5497,0.556,0.561,0.5635,0.5643,0.5697,0.569,0.5688,0.5693,0.5721,0.5721,0.5721,0.5719,0.5719,0.5719,0,0,0.4996,0.5042,0.5078,0.5122,0.5188,0.5231,0.5239,0.5314,0.5342,0.5397,0.5437,0.5477,0.556,0.5604,0.5637,0.5653,0.5681,0.5667,0.5656,0.5683,0.5683,0.5683,0.5689,0.5691,0.567,0.567,0.567,0,0.4973,0.5041,0.5094,0.5137,0.5172,0.5221,0.5258,0.5298,0.5376,0.5399,0.5407,0.5513,0.5559,0.562,0.5624,0.5649,0.566,0.5659,0.5678,0.5679,0.5681,0.5687,0.5689,0.5668,0.5668,0.5668,0.5668,0,0.5009,0.5056,0.5077,0.5152,0.519,0.523,0.5288,0.5319,0.535,0.5391,0.5446,0.5503,0.5565,0.5581,0.5612,0.5647,0.565,0.5667,0.568,0.5678,0.5685,0.5688,0.5665,0.5665,0.5666,0.5666,0,0,0.4981,0.5084,0.5091,0.5126,0.5202,0.5239,0.5281,0.5341,0.5367,0.5419,0.5456,0.5525,0.5542,0.5579,0.5615,0.5637,0.5647,0.5652,0.5655,0.565,0.5689,0.5676,0.5678,0.5665,0.5666,0.5667,0.5684,0,0.4993,0.5071,0.5119,0.5177,0.5221,0.5267,0.5304,0.5355,0.5394,0.5436,0.548,0.5528,0.5546,0.5569,0.5593,0.564,0.5656,0.564,0.5701,0.5702,0.5684,0.5682,0.5669,0.5682,0.5687,0.5687,0.5688,0,0.5018,0.5069,0.5131,0.5203,0.5223,0.5255,0.5314,0.5354,0.5412,0.5439,0.548,0.5516,0.5562,0.557,0.5635,0.5623,0.565,0.5677,0.5679,0.5687,0.5695,0.5691,0.5688,0.569,0.5693,0.5692,0.5692,0,0.4991,0.5076,0.5124,0.5152,0.5236,0.5258,0.5294,0.5352,0.5385,0.5436,0.5458,0.5514,0.5545,0.5587,0.5637,0.5638,0.5696,0.5709,0.572,0.5719,0.5731,0.573,0.5733,0.5747,0.5747,0.5747,0.5747,0,0.5,0.5037,0.5113,0.5143,0.5186,0.524,0.5281,0.532,0.5371,0.541,0.5453,0.5488,0.5551,0.5593,0.5632,0.568,0.5693,0.5716,0.5726,0.5713,0.571,0.5733,0.5733,0.5747,0.5747,0.5747,0.5747,0,0.4978,0.5031,0.5087,0.5162,0.5181,0.5209,0.5273,0.5304,0.5345,0.5393,0.5407,0.5472,0.5524,0.5578,0.5648,0.5675,0.5721,0.5734,0.5701,0.5707,0.5716,0.5714,0.5734,0.574,0.5749,0.5748,0.5748,0,0.4981,0.501,0.5088,0.5117,0.5152,0.5197,0.5231,0.5286,0.5319,0.5387,0.541,0.5465,0.5513,0.5594,0.5647,0.5701,0.5717,0.572,0.5725,0.5711,0.5718,0.5716,0.5719,0.5718,0.5718,0.5717,0.5717,0,0.498,0.5005,0.5052,0.5108,0.5148,0.5195,0.5243,0.5264,0.5328,0.5363,0.5417,0.5454,0.5526,0.5581,0.5641,0.5678,0.5708,0.5715,0.572,0.5708,0.5688,0.5699,0.5697,0.5714,0.5715,0.5715,0.5715,0.5715,0.4971,0.4999,0.5058,0.511,0.5152,0.5196,0.5229,0.5274,0.532,0.5383,0.5412,0.5466,0.5523,0.5607,0.5643,0.5686,0.5695,0.5703,0.5705,0.5706,0.5703,0.568,0.5697,0.5697,0.5698,0.5698,0.5698,0,0.4973,0.5013,0.506,0.5126,0.5166,0.5191,0.5246,0.5278,0.5325,0.5375,0.5421,0.5483,0.5536,0.5593,0.5649,0.5673,0.5688,0.5686,0.5685,0.5693,0.5692,0.5682,0.5672,0.5672,0.5672,0.5672,0.5672,0.5672,0.4979,0.5028,0.506,0.513,0.517,0.5223,0.5253,0.5293,0.5334,0.5401,0.5446,0.5482,0.5535,0.5596,0.5645,0.5661,0.5679,0.5673,0.5693,0.5691,0.5693,0.5695,0.5686,0.5677,0.5677,0.569,0.569,0.569]}]]